Location: Lower Kingswood
(51.2667°N, 0.2167°W)
Time: 11:57:24
(UTC+00:00)

Cosmos 44 - Pass Details

Date: 26 September 2023
Orbit: 570 x 788 km, 65.1° (Epoch: 10 December)

Event Time Altitude Azimuth Distance (km) Brightness Sun altitude
Exits shadow 03:00:52 53° 145° (SE) 905 3.8 -26.2°
Maximum altitude 03:01:20 55° 123° (ESE) 888 3.8 -26.1°
Drops below altitude 10° 03:06:29 10° 47° (NE) 2,307 7.0 -25.4°
Sets 03:09:00 0° 43° (NE) 3,259 8.0 -25.1°
